(72751) = 2001 EF6 = 1999 TR240 = 2001 FW128

Discovered at Socorro on 2001-03-26 by LINEAR.

Orbit

Orbit type: Main Belt

Note: WebGL enabled browser required.

epoch2023-09-13.0
epoch JD2460200.5
perihelion date2021-08-05.61151
perihelion JD2459432.11151
argument of perihelion (°)327.08215
ascending node (°)137.96154
inclination (°)8.67988
eccentricity0.1319162
perihelion distance (AU)2.2633084
Tisserand w.r.t. Jupiter3.4
ΔV w.r.t. Earth (km/sec)9.8
semimajor axis (AU)2.6072464
mean anomaly (°)179.89189
mean daily motion (°/day)0.23411580
aphelion distance (AU)2.951
period (years)4.21
P-vector [x]-0.26372331
P-vector [y]0.91441965
P-vector [z]0.30706143
Q-vector [x]-0.95929019
Q-vector [y]-0.28197851
Q-vector [z]0.01582584
absolute magnitude15.37
phase slope0.15
uncertainty0
referenceMPEC 2023-X102
observations used1089
oppositions16
arc length (days)10647
first opposition used1993
last opposition used2022
residual rms (arc-secs)0.72
perturbers coarse indicatorM-v
perturbers precise indicator003Ek
first observation date used1993-04-22.0
last observation date used2022-06-16.0
computer nameMPCLINUX
JD of orbit computation2456966.862799
perihelion JD uncertainty (days)8.1115E-05
argument of perihelion uncertainty (°)3.4586E-05
ascending node uncertainty (°)2.8941E-05
inclination uncertainty (°)4.5541E-06
eccentricity uncertainty 4.0070E-08
perihelion distance uncertainty (AU)1.0568E-07
Minimum Orbit Intersection Distances (in AU)
for orbit epoch: 2460200.5, reference: E2023-XA2
Mercury1.95224
Venus1.55067
Earth1.28395
Mars0.64724
Jupiter2.17003
Saturn6.78065
Uranus15.9848
Neptune27.1983

Observations

1119 total observations over interval: 1993 04 17.43809 – 2022 06 16.171201
These data are available for download (format description).

Date (UT) J2000 RA J2000 Dec Magn Location Ref
1993 04 17.43809 15 19 49.50 -04 38 23.4 19.1 V 691 – Steward Observatory, Kitt Peak-Spacewatch MPS 78067
1993 04 17.45851 15 19 48.62 -04 38 16.6 19.6 V 691 – Steward Observatory, Kitt Peak-Spacewatch MPS 78067
1993 04 17.47854 15 19 47.67 -04 38 10.3 19.4 V 691 – Steward Observatory, Kitt Peak-Spacewatch MPS 78067
1993 04 22.43324 15 16 05.40 -04 11 49.3 19.6 V 691 – Steward Observatory, Kitt Peak-Spacewatch MPS 78067
1993 04 22.45127 15 16 04.55 -04 11 43.2 19.9 V 691 – Steward Observatory, Kitt Peak-Spacewatch MPS 78067
1993 04 22.46981 15 16 03.63 -04 11 37.5 19.7 V 691 – Steward Observatory, Kitt Peak-Spacewatch MPS 78067
1999 10 04.35133 02 25 12.39 +00 54 30.0 19.2 R 703 – Catalina Sky Survey MPS 15430
1999 10 04.36358 02 25 11.88 +00 54 24.9 19.1 R 703 – Catalina Sky Survey MPS 15430
1999 10 04.37568 02 25 11.46 +00 54 18.9 19.4 R 703 – Catalina Sky Survey MPS 15430
1999 10 04.38777 02 25 11.03 +00 54 14.6 18.8 R 703 – Catalina Sky Survey MPS 15430
1999 10 09.25235 02 22 08.19 +00 18 51.2 19.1   704 – Lincoln Laboratory ETS, New Mexico MPS 15430
1999 10 09.26780 02 22 07.54 +00 18 44.4 19.2   704 – Lincoln Laboratory ETS, New Mexico MPS 15430
1999 10 09.28336 02 22 06.88 +00 18 37.5 19.4   704 – Lincoln Laboratory ETS, New Mexico MPS 15430
1999 10 09.29881 02 22 06.21 +00 18 30.3 19.7   704 – Lincoln Laboratory ETS, New Mexico MPS 15430
1999 10 09.31425 02 22 05.60 +00 18 24.7 19.7   704 – Lincoln Laboratory ETS, New Mexico MPS 15430
2000 12 30.51350 12 06 18.36 +02 44 55.3 18.9 R 699 – Lowell Observatory-LONEOS MPS 28499
2000 12 30.52452 12 06 19.02 +02 44 55.8   699 – Lowell Observatory-LONEOS MPS 28499
2000 12 30.53554 12 06 19.56 +02 44 53.5   699 – Lowell Observatory-LONEOS MPS 28499
2000 12 30.54660 12 06 20.09 +02 44 53.4   699 – Lowell Observatory-LONEOS MPS 28499
2001 01 19.43214 12 19 30.47 +02 54 39.7 19.8   704 – Lincoln Laboratory ETS, New Mexico MPS 28499
2001 01 19.44784 12 19 30.80 +02 54 42.7 19.6   704 – Lincoln Laboratory ETS, New Mexico MPS 28499
2001 01 19.46662 12 19 31.26 +02 54 44.9 19.3   704 – Lincoln Laboratory ETS, New Mexico MPS 28499
2001 01 19.48373 12 19 31.77 +02 54 47.0 19.6   704 – Lincoln Laboratory ETS, New Mexico MPS 28499
2001 02 01.43532 12 22 49.89 +03 43 45.7 18.4 R 699 – Lowell Observatory-LONEOS MPS 28499
2001 02 01.46352 12 22 49.98 +03 43 53.1   699 – Lowell Observatory-LONEOS MPS 28499
2001 02 01.49171 12 22 50.01 +03 43 59.5   699 – Lowell Observatory-LONEOS MPS 28499
2001 02 01.51984 12 22 50.09 +03 44 10.3   699 – Lowell Observatory-LONEOS MPS 28499
2001 02 17.37501 12 20 31.92 +05 28 50.5 18.2   704 – Lincoln Laboratory ETS, New Mexico MPS 28499
2001 02 17.38910 12 20 31.62 +05 28 56.5 19.1   704 – Lincoln Laboratory ETS, New Mexico MPS 28499
2001 02 17.40314 12 20 31.22 +05 29 03.5 19.1   704 – Lincoln Laboratory ETS, New Mexico MPS 28499
2001 02 17.41718 12 20 30.95 +05 29 09.9 18.9   704 – Lincoln Laboratory ETS, New Mexico MPS 28499
2001 02 17.43127 12 20 30.53 +05 29 16.9 19.3   704 – Lincoln Laboratory ETS, New Mexico MPS 28499
2001 03 02.29194 12 13 51.26 +07 20 22.1 18.2 R 699 – Lowell Observatory-LONEOS MPS 28138
2001 03 02.31692 12 13 50.26 +07 20 36.8   699 – Lowell Observatory-LONEOS MPS 28138
2001 03 02.34189 12 13 49.18 +07 20 50.9   699 – Lowell Observatory-LONEOS MPS 28138
2001 03 02.36686 12 13 48.19 +07 21 03.3   699 – Lowell Observatory-LONEOS MPS 28138
2001 03 03.30691 12 13 10.79 +07 29 38.6 18.9   704 – Lincoln Laboratory ETS, New Mexico MPS 28138
2001 03 03.32002 12 13 10.31 +07 29 46.5 19.0   704 – Lincoln Laboratory ETS, New Mexico MPS 28138
2001 03 03.33314 12 13 09.71 +07 29 52.9 18.4   704 – Lincoln Laboratory ETS, New Mexico MPS 28138
2001 03 03.34627 12 13 09.07 +07 30 00.4 19.0   704 – Lincoln Laboratory ETS, New Mexico MPS 28138
2001 03 03.35942 12 13 08.58 +07 30 06.5 18.5   704 – Lincoln Laboratory ETS, New Mexico MPS 28138
2001 03 20.39095 12 00 04.28 +10 01 02.5 18.7   608 – Haleakala-AMOS MPS 28499
2001 03 20.40157 12 00 03.74 +10 01 07.7 18.5   608 – Haleakala-AMOS MPS 28499
2001 03 20.41215 12 00 03.20 +10 01 13.1 18.8   608 – Haleakala-AMOS MPS 28499
2001 03 24.00358 11 57 09.09 +10 29 20.4 18.3 V 049 – Uppsala-Kvistaberg MPS 28499
2001 03 24.01642 11 57 08.47 +10 29 25.8 18.4 V 049 – Uppsala-Kvistaberg MPS 28499
2001 03 24.02924 11 57 07.82 +10 29 32.6 18.1 V 049 – Uppsala-Kvistaberg MPS 28499
2001 03 26.24752 11 55 22.36 +10 45 55.8 17.9   704 – Lincoln Laboratory ETS, New Mexico MPS 28499
2001 03 26.25985 11 55 21.72 +10 46 02.0 18.3   704 – Lincoln Laboratory ETS, New Mexico MPS 28499
2001 03 26.27220 11 55 21.11 +10 46 06.9 18.4   704 – Lincoln Laboratory ETS, New Mexico MPS 28499
2001 03 26.28459 11 55 20.53 +10 46 12.3 18.2   704 – Lincoln Laboratory ETS, New Mexico MPS 28499
2001 03 26.29702 11 55 19.89 +10 46 17.9 18.5   704 – Lincoln Laboratory ETS, New Mexico MPS 28499
2001 03 29.33057 11 52 59.76 +11 07 08.6 20.0   608 – Haleakala-AMOS MPS 28499
2001 03 29.34157 11 52 59.22 +11 07 12.9 19.8   608 – Haleakala-AMOS MPS 28499
2001 03 29.35229 11 52 58.73 +11 07 17.1 19.4   608 – Haleakala-AMOS MPS 28499
2001 03 29.58300 11 52 47.78 +11 08 47.5 19.4   608 – Haleakala-AMOS MPS 28499
2001 03 29.59436 11 52 47.31 +11 08 51.8 19.5   608 – Haleakala-AMOS MPS 28499
2001 03 29.60530 11 52 46.78 +11 08 56.2 20.0   608 – Haleakala-AMOS MPS 28499
2001 03 31.26866 11 51 33.04 +11 19 26.9 18.6   704 – Lincoln Laboratory ETS, New Mexico MPS 28499
2001 03 31.33077 11 51 30.14 +11 19 50.2 18.6   704 – Lincoln Laboratory ETS, New Mexico MPS 28499
2001 03 31.34920 11 51 29.29 +11 19 57.4 19.3   704 – Lincoln Laboratory ETS, New Mexico MPS 28499
2001 03 31.37283 11 51 28.27 +11 20 06.0 18.2   704 – Lincoln Laboratory ETS, New Mexico MPS 28499
2003 08 23.36323 00 53 31.96 -02 49 27.7 19.4   704 – Lincoln Laboratory ETS, New Mexico MPS 83316
2003 08 23.37556 00 53 31.87 -02 49 32.7 19.2   704 – Lincoln Laboratory ETS, New Mexico MPS 83316
2003 08 23.38785 00 53 31.69 -02 49 36.1 19.3   704 – Lincoln Laboratory ETS, New Mexico MPS 83316
2003 08 26.35510 00 52 52.59 -03 08 27.7 18.9   704 – Lincoln Laboratory ETS, New Mexico MPS 83316
2003 08 26.36792 00 52 52.34 -03 08 31.6 19.1   704 – Lincoln Laboratory ETS, New Mexico MPS 83316
2003 08 26.38044 00 52 52.10 -03 08 36.6 19.1   704 – Lincoln Laboratory ETS, New Mexico MPS 83316
2003 08 26.39370 00 52 51.88 -03 08 41.5 18.6   704 – Lincoln Laboratory ETS, New Mexico MPS 83316
2003 08 26.40646 00 52 51.66 -03 08 46.9 18.9   704 – Lincoln Laboratory ETS, New Mexico MPS 83316
2003 09 02.30773 00 50 31.43 -03 57 12.0 18.8 C 704 – Lincoln Laboratory ETS, New Mexico MPS 290996
2003 09 02.31937 00 50 31.13 -03 57 16.7 19.5 C 704 – Lincoln Laboratory ETS, New Mexico MPS 290996
2003 09 02.33094 00 50 30.79 -03 57 22.4 18.9 C 704 – Lincoln Laboratory ETS, New Mexico MPS 290996
2003 09 02.34255 00 50 30.56 -03 57 27.4 19.2 C 704 – Lincoln Laboratory ETS, New Mexico MPS 290996
2003 09 18.29225 00 41 15.73 -06 05 21.4 19.1   704 – Lincoln Laboratory ETS, New Mexico MPS 84510
2003 09 18.30416 00 41 15.21 -06 05 27.1 19.1   704 – Lincoln Laboratory ETS, New Mexico MPS 84510
2003 09 18.31614 00 41 14.58 -06 05 31.8 18.9   704 – Lincoln Laboratory ETS, New Mexico MPS 84510
2003 09 18.32818 00 41 14.09 -06 05 38.2 19.0   704 – Lincoln Laboratory ETS, New Mexico MPS 84510
2003 09 18.34011 00 41 13.50 -06 05 45.6 18.9   704 – Lincoln Laboratory ETS, New Mexico MPS 84510
2003 09 18.45348 00 41 08.73 -06 06 40.5 19.9   608 – Haleakala-AMOS MPS 86174
2003 09 18.46438 00 41 08.20 -06 06 45.7 20.0   608 – Haleakala-AMOS MPS 86174
2003 09 18.47519 00 41 07.72 -06 06 50.8 19.8   608 – Haleakala-AMOS MPS 86174
2003 10 18.18859 00 17 58.27 -09 35 09.0 19.0 R 699 – Lowell Observatory-LONEOS MPS 87929
2003 10 18.20193 00 17 57.73 -09 35 13.6   699 – Lowell Observatory-LONEOS MPS 87929
2003 10 18.21534 00 17 57.13 -09 35 16.9   699 – Lowell Observatory-LONEOS MPS 87929
2003 10 18.22870 00 17 56.53 -09 35 21.3   699 – Lowell Observatory-LONEOS MPS 87929
2003 10 24.28523 00 14 03.34 -09 59 26.6 20.2   608 – Haleakala-AMOS MPS 87929
2003 10 24.29569 00 14 02.96 -09 59 29.1 20.0   608 – Haleakala-AMOS MPS 87929
